Wind_Speed
19 19 19 18 17 16 16 15 15 14 13 12 12 11 11 10 9 8 8 8 7 7 7 7 6 6 6 6 5 5 4 4 4 3 3 3 3 4 4 4 4 4 5
21 21 20 20 20 19 18 18 17 16 16 15 14 14 13 13 12 11 10 10 9 8 8 8 8 8 7 7 7 7 7 6 6 5 5 5 5 5 5 5 5 5 5
21 22 22 22 22 21 20 20 20 19 18 18 17 16 15 15 14 14 13 12 11 10 10 9 9 9 9 9 9 9 9 8 8 8 7 7 6 6 6 6 6 6 6
22 22 23 23 23 23 23 22 22 21 20 20 20 19 18 17 16 16 15 14 13 12 12 11 11 11 10 10 10 10 10 10 10 10 9 9 8 8 8 8 8 8 8
23 23 24 24 24 25 25 25 24 24 23 23 22 21 21 20 19 18 18 17 16 15 15 14 13 13 12 12 12 12 12 12 11 11 11 11 11 10 10 9 9 9 9
25 25 25 25 25 25 25 26 26 26 26 25 25 24 23 23 22 21 20 19 19 18 17 16 16 15 14 14 14 13 14 14 13 13 13 13 13 12 12 11 11 10 11
26 26 26 26 26 26 26 26 27 27 27 27 27 26 25 24 23 23 23 22 21 20 20 19 18 17 17 16 16 16 15 15 15 15 15 14 14 14 13 13 12 12 12
28 28 28 28 28 28 28 27 27 27 27 27 28 28 27 27 25 25 25 24 23 23 22 21 20 20 19 18 17 17 17 17 16 16 16 16 16 15 15 15 14 14 13
29 29 29 29 29 29 29 29 28 28 28 28 28 29 29 29 28 27 27 26 26 25 24 23 23 22 21 21 20 19 19 18 18 18 18 17 17 17 16 16 16 15 15
30 29 30 30 30 30 30 30 31 30 30 30 30 30 30 30 30 30 29 28 28 27 26 25 25 24 23 23 22 21 21 20 20 19 19 19 19 18 18 18 18 17 17
31 30 30 31 31 31 31 31 32 32 32 32 32 31 32 32 32 31 31 30 29 28 28 27 27 26 26 25 24 23 23 22 21 21 21 21 20 20 20 20 20 19 19
32 32 31 32 32 33 33 33 33 33 33 34 34 34 33 33 33 33 32 31 31 30 30 29 28 28 27 27 26 26 25 24 23 23 22 22 22 21 21 21 21 21 21
33 33 33 34 34 34 35 35 35 34 34 34 34 35 35 34 34 34 34 33 33 32 32 31 31 30 29 28 28 27 26 26 25 24 24 23 23 23 23 23 22 22 22
33 34 34 35 35 35 35 35 36 36 35 35 35 35 36 36 36 36 35 35 34 33 33 32 32 32 31 30 30 29 29 28 27 26 26 26 25 25 24 24 24 24 23
33 34 34 34 34 34 34 34 35 36 36 36 37 37 37 38 38 38 38 37 37 36 35 34 34 33 33 33 32 32 31 30 29 29 28 28 27 26 26 26 26 26 25
32 32 33 33 33 34 34 35 35 37 38 38 37 37 38 38 39 39 39 39 39 38 37 37 36 36 35 35 35 34 34 33 33 32 31 30 30 29 28 28 28 28 27
31 32 32 32 33 34 34 35 36 37 38 39 39 38 38 39 40 41 41 41 41 40 40 39 38 38 37 37 37 36 36 36 35 34 34 33 32 31 31 30 29 29 29
30 31 32 32 33 34 35 36 37 38 38 40 40 40 40 40 40 41 42 42 42 42 42 41 40 40 40 41 40 39 38 38 38 37 36 35 34 33 33 32 31 31 31
30 30 31 32 34 35 36 37 38 38 39 40 40 41 41 41 41 42 43 43 44 44 44 44 43 42 42 42 42 43 41 40 39 39 38 37 36 35 34 34 34 33 33
30 31 31 32 33 34 36 36 37 38 39 39 40 41 41 42 43 43 44 45 45 46 47 47 46 45 44 43 43 44 43 41 41 41 40 40 39 38 37 36 36 35 35
30 31 31 32 32 33 34 35 37 38 39 40 41 42 43 43 44 45 45 46 47 48 48 48 48 48 47 47 47 46 46 45 43 42 42 42 41 41 39 38 38 38 37
30 31 32 32 32 33 33 35 36 38 39 40 40 41 43 44 45 45 46 47 47 48 49 50 50 49 49 48 48 48 48 47 45 44 43 43 43 43 42 42 41 40 39
30 31 32 32 32 33 33 34 35 36 38 40 40 41 42 43 44 45 46 47 47 47 48 49 50 49 49 48 48 49 49 49 47 46 45 45 45 45 45 44 43 42 42
30 31 31 32 33 34 33 33 34 35 37 38 40 41 42 42 43 43 44 45 46 46 47 48 49 50 50 49 49 49 49 50 49 47 46 46 47 47 47 47 45 45 44
29 30 31 32 33 33 34 34 35 35 36 37 38 39 41 42 42 43 43 44 45 45 45 46 47 48 49 49 49 49 50 51 51 49 47 46 47 47 48 48 47 47 46
29 30 30 31 32 33 33 34 34 35 35 35 36 38 39 39 40 40 41 42 43 44 44 45 46 47 47 48 48 49 50 50 50 50 48 47 47 47 48 49 49 48 47
Wind_Direction
247 247 245 245 245 245 244 245 245 244 243 242 241 240 237 233 232 228 224 222 222 224 227 227 227 227 230 232 233 237 241 246 247 256 268 284 292 294 296 304 310 314 318
248 248 247 247 247 247 246 246 246 247 246 245 245 245 244 240 237 235 233 232 232 233 233 234 234 234 237 239 239 239 243 248 251 256 262 272 281 286 290 294 298 302 306
249 249 249 249 249 249 248 248 247 247 247 247 247 246 246 245 241 239 238 237 237 237 238 240 239 238 241 244 246 246 246 248 251 255 260 266 273 278 283 287 290 294 297
249 249 250 250 250 250 250 250 250 248 248 248 247 247 247 246 244 241 240 240 241 241 241 243 244 242 243 246 248 249 249 250 252 255 259 263 267 272 277 282 285 289 292
249 249 250 250 251 251 252 251 252 251 250 250 249 248 248 248 247 244 243 244 244 244 244 245 247 247 246 248 250 250 250 251 252 255 257 261 264 269 273 277 281 285 288
248 249 250 251 252 253 253 252 252 252 251 251 250 249 249 249 249 247 245 245 245 245 245 246 247 249 250 250 252 253 253 253 253 255 257 260 263 266 269 273 277 282 286
248 249 251 252 253 254 254 254 253 254 253 251 250 250 250 249 248 247 247 246 247 247 247 247 248 249 251 251 252 254 254 255 255 256 258 260 263 265 267 270 275 279 283
249 250 251 252 253 254 254 255 254 254 254 253 251 251 251 251 250 249 248 247 246 247 247 248 248 249 250 251 252 254 255 256 257 258 259 261 262 264 266 269 272 275 279
252 252 252 253 253 254 254 255 255 255 254 254 253 252 252 252 251 250 250 249 248 248 248 248 249 250 250 250 251 253 255 256 256 258 259 261 263 264 265 267 270 272 276
252 252 252 253 253 254 256 255 255 255 254 254 255 254 253 253 253 251 250 250 249 248 248 248 249 250 250 251 251 252 254 256 257 257 259 261 262 264 265 266 268 270 272
252 252 253 254 254 255 256 256 256 255 255 255 254 255 253 252 252 251 251 250 249 248 248 248 249 250 250 251 251 252 253 255 256 257 258 260 262 263 264 266 267 269 271
252 252 254 255 256 255 256 256 256 257 256 256 255 255 254 252 251 251 251 250 249 248 248 248 248 249 250 251 251 252 253 254 255 257 259 260 261 262 263 265 267 268 270
252 253 254 256 257 257 256 256 256 256 256 256 256 255 254 253 251 251 251 250 250 249 249 249 248 249 250 250 251 251 252 254 256 256 257 259 260 261 263 264 266 268 269
253 254 256 256 256 257 257 256 255 255 256 256 256 256 254 253 252 251 250 250 250 249 249 250 250 249 250 251 251 251 252 253 255 257 257 259 260 261 261 263 264 266 269
254 254 255 255 255 255 255 255 255 255 256 257 257 257 255 253 252 252 250 250 249 250 250 250 250 250 251 251 252 252 252 253 255 257 258 258 259 260 261 263 264 265 267
253 254 255 255 255 255 255 255 256 256 256 257 257 257 256 253 252 252 252 251 250 251 251 250 251 251 250 251 252 253 253 253 255 257 258 258 258 259 261 263 264 264 265
254 255 256 257 257 257 257 257 258 258 258 257 257 257 257 255 254 253 253 253 251 252 252 252 250 250 251 251 252 253 253 253 255 256 257 257 258 259 261 262 263 265 265
255 257 258 260 260 261 260 260 260 260 259 257 257 257 256 256 255 254 254 253 252 252 252 252 251 251 251 251 252 253 253 253 254 255 256 257 257 258 260 261 263 265 266
257 259 260 263 264 263 263 262 262 262 260 258 257 257 255 255 255 255 254 254 254 252 252 252 252 252 253 253 252 252 253 253 253 255 256 256 257 258 260 262 263 264 266
260 262 264 265 266 266 265 264 263 262 261 259 258 257 256 256 256 256 255 254 254 253 252 252 251 252 253 254 254 253 253 253 253 254 256 257 258 258 259 261 262 264 266
262 263 266 268 268 267 265 265 264 263 262 261 260 259 257 257 257 257 256 255 254 253 252 251 251 251 252 254 254 254 253 253 254 254 255 256 257 258 259 260 261 263 264
264 265 266 269 270 271 269 268 267 265 263 261 261 260 259 258 258 258 257 255 255 254 252 251 250 250 251 253 254 255 254 254 254 253 255 256 258 259 259 260 261 262 264
266 268 269 270 271 272 271 269 268 268 266 264 262 261 260 260 259 259 258 257 256 254 253 251 250 250 251 252 254 254 255 255 254 253 255 255 257 258 259 259 261 262 263
269 271 272 272 272 272 272 271 270 269 268 267 265 263 261 260 259 260 258 257 256 255 254 252 251 251 251 252 253 253 254 256 254 253 254 256 257 257 258 259 260 261 262
272 273 274 275 275 275 273 273 273 272 271 270 268 266 263 261 260 260 259 257 256 256 256 254 252 252 251 251 251 253 255 256 255 255 255 256 257 258 259 259 259 261 262
274 275 276 276 277 276 275 273 273 273 273 272 270 268 265 262 260 259 258 257 256 256 256 255 252 251 251 251 251 254 255 256 256 257 255 254 256 258 259 259 260 260 261
Height
5863 5864 5865 5866 5867 5867 5868 5869 5870 5871 5871 5872 5872 5873 5873 5873 5874 5874 5874 5874 5874 5875 5875 5875 5876 5876 5876 5876 5876 5876 5876 5876 5876 5876 5876 5875 5875 5875 5874 5874 5874 5873 5872
5859 5860 5861 5862 5863 5864 5865 5866 5867 5868 5869 5869 5870 5870 5871 5871 5872 5872 5872 5872 5873 5873 5873 5873 5874 5874 5874 5874 5874 5875 5875 5875 5875 5875 5874 5874 5874 5874 5873 5873 5872 5872 5871
5855 5856 5857 5858 5859 5861 5862 5863 5864 5865 5866 5866 5867 5868 5868 5869 5869 5870 5870 5871 5871 5871 5871 5872 5872 5872 5872 5873 5873 5873 5873 5873 5873 5873 5873 5873 5873 5872 5872 5872 5871 5871 5870
5851 5852 5853 5854 5855 5856 5858 5859 5860 5861 5862 5863 5864 5864 5865 5866 5867 5867 5868 5868 5868 5869 5869 5869 5870 5870 5870 5871 5871 5871 5871 5871 5871 5871 5871 5871 5871 5871 5870 5870 5870 5869 5869
5846 5847 5848 5850 5851 5852 5853 5855 5856 5857 5858 5859 5860 5861 5862 5862 5863 5864 5865 5865 5866 5866 5867 5867 5867 5868 5868 5868 5869 5869 5869 5869 5869 5869 5869 5869 5869 5869 5869 5868 5868 5868 5867
5841 5843 5844 5845 5846 5847 5848 5850 5851 5852 5853 5854 5855 5856 5857 5858 5859 5860 5861 5862 5862 5863 5863 5864 5864 5865 5865 5866 5866 5866 5866 5866 5867 5867 5867 5867 5867 5867 5866 5866 5866 5866 5865
5836 5837 5839 5840 5841 5842 5843 5844 5846 5847 5848 5849 5850 5852 5853 5854 5855 5856 5857 5858 5859 5859 5860 5861 5861 5862 5862 5863 5863 5863 5863 5864 5864 5864 5864 5864 5864 5864 5864 5864 5864 5863 5863
5831 5832 5833 5834 5835 5837 5838 5839 5840 5841 5843 5844 5845 5846 5847 5849 5850 5851 5852 5853 5854 5855 5856 5857 5857 5858 5858 5859 5859 5860 5860 5860 5861 5861 5861 5861 5861 5861 5861 5861 5861 5861 5860
5825 5826 5827 5828 5830 5831 5832 5833 5834 5836 5837 5838 5839 5841 5842 5843 5845 5846 5847 5848 5849 5851 5851 5852 5853 5854 5854 5855 5855 5856 5856 5857 5857 5857 5857 5858 5858 5858 5858 5858 5858 5858 5857
5819 5820 5821 5822 5823 5825 5826 5827 5828 5830 5831 5832 5833 5835 5836 5837 5839 5840 5841 5843 5844 5845 5846 5847 5848 5849 5850 5850 5851 5852 5852 5853 5853 5853 5854 5854 5854 5854 5855 5855 5855 5854 5854
5812 5813 5815 5816 5817 5818 5819 5820 5821 5823 5824 5825 5827 5828 5829 5831 5832 5834 5835 5837 5838 5839 5841 5842 5843 5844 5844 5845 5846 5847 5847 5848 5849 5849 5850 5850 5850 5851 5851 5851 5851 5851 5851
5805 5807 5808 5809 5810 5811 5812 5813 5814 5816 5817 5818 5820 5821 5822 5824 5825 5827 5828 5830 5832 5833 5835 5836 5837 5838 5839 5840 5841 5841 5842 5843 5844 5844 5845 5845 5846 5846 5846 5846 5847 5847 5847
5798 5799 5801 5802 5803 5804 5805 5806 5807 5808 5809 5811 5812 5813 5815 5816 5818 5820 5821 5823 5825 5827 5828 5830 5831 5832 5833 5834 5835 5836 5837 5838 5839 5839 5840 5840 5841 5841 5842 5842 5842 5842 5842
5791 5792 5793 5794 5795 5796 5797 5798 5799 5800 5802 5803 5804 5805 5807 5809 5810 5812 5814 5816 5818 5820 5821 5823 5824 5825 5827 5828 5829 5830 5831 5832 5833 5834 5834 5835 5836 5836 5836 5837 5837 5837 5837
5783 5784 5785 5786 5787 5788 5789 5790 5791 5792 5793 5795 5796 5797 5798 5800 5802 5804 5806 5808 5810 5812 5814 5816 5817 5819 5820 5821 5823 5824 5825 5826 5827 5828 5828 5829 5830 5830 5831 5831 5832 5832 5832
5776 5777 5777 5778 5779 5780 5781 5782 5782 5784 5785 5786 5788 5789 5790 5791 5794 5796 5798 5800 5802 5804 5806 5808 5810 5811 5812 5814 5815 5817 5818 5819 5820 5821 5822 5823 5823 5824 5825 5825 5826 5826 5826
5769 5769 5770 5771 5771 5772 5773 5773 5774 5775 5776 5777 5778 5780 5781 5783 5785 5786 5789 5791 5793 5795 5797 5799 5801 5803 5805 5806 5807 5808 5810 5812 5813 5814 5815 5816 5817 5818 5818 5819 5819 5820 5820
5762 5763 5763 5763 5764 5764 5764 5764 5765 5765 5766 5767 5769 5770 5772 5774 5775 5777 5779 5782 5784 5786 5788 5790 5792 5794 5796 5797 5799 5801 5802 5803 5805 5806 5807 5808 5809 5810 5811 5812 5813 5813 5813
5755 5756 5756 5756 5756 5755 5755 5755 5755 5756 5757 5758 5759 5761 5762 5764 5765 5767 5769 5772 5773 5776 5778 5781 5783 5785 5787 5788 5790 5792 5793 5795 5796 5798 5799 5800 5802 5803 5804 5804 5805 5806 5806
5748 5749 5749 5748 5748 5747 5747 5746 5747 5747 5747 5748 5749 5751 5752 5754 5755 5757 5759 5761 5763 5765 5768 5770 5772 5774 5777 5778 5780 5782 5784 5786 5787 5789 5791 5792 5793 5794 5795 5796 5797 5798 5798
5741 5742 5741 5741 5740 5739 5738 5738 5738 5738 5738 5739 5739 5740 5742 5743 5745 5747 5748 5750 5752 5754 5756 5759 5761 5764 5766 5768 5770 5772 5774 5776 5778 5780 5781 5783 5784 5786 5787 5787 5788 5789 5790
5734 5734 5734 5733 5732 5731 5730 5730 5729 5729 5729 5729 5730 5730 5731 5733 5734 5736 5737 5739 5740 5742 5745 5747 5750 5752 5755 5757 5759 5761 5763 5766 5768 5769 5771 5773 5775 5776 5777 5778 5779 5780 5781
5727 5727 5726 5725 5724 5723 5722 5722 5721 5720 5720 5720 5720 5720 5721 5722 5723 5725 5726 5728 5729 5731 5733 5736 5738 5741 5744 5746 5748 5750 5752 5755 5758 5760 5761 5763 5765 5766 5767 5768 5769 5770 5771
5720 5719 5718 5717 5716 5715 5714 5713 5712 5712 5712 5711 5711 5710 5710 5711 5712 5714 5715 5716 5718 5720 5722 5724 5727 5730 5732 5735 5737 5739 5741 5743 5746 5748 5751 5752 5753 5755 5756 5757 5758 5759 5760
5713 5712 5711 5710 5708 5707 5706 5705 5704 5704 5703 5702 5701 5701 5701 5701 5702 5703 5704 5706 5707 5709 5711 5713 5716 5718 5721 5724 5726 5728 5729 5731 5734 5736 5739 5741 5742 5743 5744 5745 5746 5748 5749
5706 5705 5703 5702 5700 5698 5697 5696 5695 5695 5694 5693 5692 5692 5691 5691 5692 5693 5694 5695 5697 5698 5700 5702 5705 5707 5710 5712 5715 5716 5718 5720 5723 5724 5727 5729 5730 5732 5732 5733 5735 5736 5737